TimeMST,TemperatureF,Dew PointF,Humidity,Sea Level PressureIn,VisibilityMPH,Wind Direction,Wind SpeedMPH,Gust SpeedMPH,PrecipitationIn,Events,Conditions,WindDirDegrees,DateUTC
12:15 AM,46.4,19.4,34,30.26,10.0,Calm,Calm,-,N/A,,Clear,0,2013-01-24 07:15:00
12:35 AM,48.2,19.4,32,30.26,10.0,Calm,Calm,-,N/A,,Clear,0,2013-01-24 07:35:00
12:55 AM,48.2,19.4,32,30.26,10.0,East,4.6,-,N/A,,Clear,100,2013-01-24 07:55:00
1:35 AM,42.8,21.2,42,30.25,10.0,Calm,Calm,-,N/A,,Clear,0,2013-01-24 08:35:00
1:55 AM,44.6,19.4,37,30.26,10.0,Calm,Calm,-,N/A,,Clear,0,2013-01-24 08:55:00
2:15 AM,44.6,19.4,37,30.26,10.0,SW,4.6,-,N/A,,Clear,230,2013-01-24 09:15:00
2:35 AM,42.8,21.2,42,30.26,10.0,Calm,Calm,-,N/A,,Clear,0,2013-01-24 09:35:00
2:55 AM,42.8,19.4,39,30.26,10.0,Calm,Calm,-,N/A,,Clear,0,2013-01-24 09:55:00
3:15 AM,42.8,19.4,39,30.26,10.0,Calm,Calm,-,N/A,,Clear,0,2013-01-24 10:15:00
3:35 AM,44.6,19.4,37,30.26,10.0,Calm,Calm,-,N/A,,Mostly Cloudy,0,2013-01-24 10:35:00
3:55 AM,44.6,21.2,39,30.25,10.0,Calm,Calm,-,N/A,,Scattered Clouds,0,2013-01-24 10:55:00
4:15 AM,44.6,21.2,39,30.25,10.0,Calm,Calm,-,N/A,,Mostly Cloudy,0,2013-01-24 11:15:00
4:35 AM,42.8,21.2,42,30.25,10.0,Calm,Calm,-,N/A,,Overcast,0,2013-01-24 11:35:00
4:55 AM,42.8,21.2,42,30.25,10.0,Calm,Calm,-,N/A,,Overcast,0,2013-01-24 11:55:00
5:15 AM,42.8,21.2,42,30.25,10.0,Calm,Calm,-,N/A,,Overcast,0,2013-01-24 12:15:00
5:35 AM,42.8,21.2,42,30.25,10.0,Calm,Calm,-,N/A,,Overcast,0,2013-01-24 12:35:00
5:55 AM,42.8,24.8,49,30.25,10.0,SSW,4.6,-,N/A,,Overcast,200,2013-01-24 12:55:00
6:15 AM,42.8,21.2,42,30.26,10.0,South,4.6,-,N/A,,Overcast,170,2013-01-24 13:15:00
6:35 AM,42.8,23.0,46,30.27,10.0,South,3.5,-,N/A,,Overcast,180,2013-01-24 13:35:00
6:55 AM,42.8,24.8,49,30.27,10.0,South,4.6,-,N/A,,Overcast,190,2013-01-24 13:55:00
7:15 AM,42.8,23.0,46,30.26,10.0,Calm,Calm,-,N/A,,Overcast,0,2013-01-24 14:15:00
7:35 AM,44.6,23.0,43,30.26,10.0,NNW,3.5,-,N/A,,Overcast,340,2013-01-24 14:35:00
7:55 AM,42.8,24.8,49,30.27,10.0,WNW,3.5,-,N/A,,Overcast,290,2013-01-24 14:55:00
8:15 AM,42.8,23.0,46,30.27,10.0,WNW,6.9,-,N/A,,Overcast,300,2013-01-24 15:15:00
8:35 AM,44.6,26.6,49,30.27,10.0,NNE,3.5,-,N/A,,Overcast,30,2013-01-24 15:35:00
8:55 AM,42.8,30.2,61,30.27,10.0,SE,3.5,-,N/A,,Overcast,140,2013-01-24 15:55:00
9:15 AM,42.8,30.2,61,30.28,10.0,South,5.8,-,N/A,,Overcast,190,2013-01-24 16:15:00
9:35 AM,42.8,30.2,61,30.28,10.0,South,4.6,-,N/A,,Mostly Cloudy,170,2013-01-24 16:35:00
9:55 AM,44.6,28.4,53,30.29,10.0,SSE,3.5,-,N/A,,Overcast,160,2013-01-24 16:55:00
10:15 AM,46.4,26.6,46,30.30,10.0,SSE,3.5,-,N/A,,Overcast,160,2013-01-24 17:15:00
10:35 AM,46.4,26.6,46,30.31,10.0,Calm,Calm,-,N/A,,Overcast,0,2013-01-24 17:35:00
10:55 AM,46.4,28.4,50,30.31,10.0,Calm,Calm,-,N/A,,Overcast,0,2013-01-24 17:55:00
11:15 AM,46.4,26.6,46,30.31,10.0,Calm,Calm,-,N/A,,Overcast,0,2013-01-24 18:15:00
11:35 AM,48.2,28.4,46,30.32,10.0,NNE,3.5,-,N/A,,Overcast,20,2013-01-24 18:35:00
11:55 AM,46.4,30.2,53,30.32,10.0,Calm,Calm,-,N/A,,Overcast,0,2013-01-24 18:55:00
12:15 PM,48.2,30.2,50,30.31,10.0,Calm,Calm,-,N/A,,Overcast,0,2013-01-24 19:15:00
12:35 PM,48.2,30.2,50,30.29,10.0,ENE,5.8,-,N/A,,Overcast,70,2013-01-24 19:35:00
12:55 PM,50.0,28.4,43,30.30,10.0,Calm,Calm,-,N/A,,Overcast,0,2013-01-24 19:55:00
1:15 PM,48.2,32.0,54,30.29,10.0,Calm,Calm,-,N/A,,Overcast,0,2013-01-24 20:15:00
1:35 PM,48.2,35.6,62,30.29,10.0,Calm,Calm,-,N/A,,Overcast,0,2013-01-24 20:35:00
1:55 PM,46.4,35.6,66,30.28,10.0,South,4.6,-,N/A,,Overcast,190,2013-01-24 20:55:00
2:15 PM,46.4,33.8,62,30.29,10.0,SSW,5.8,-,N/A,,Overcast,210,2013-01-24 21:15:00
2:35 PM,46.4,33.8,62,30.29,10.0,Calm,Calm,-,N/A,,Overcast,0,2013-01-24 21:35:00
2:55 PM,48.2,33.8,58,30.28,10.0,Calm,Calm,-,N/A,,Overcast,0,2013-01-24 21:55:00
3:15 PM,48.2,33.8,58,30.28,10.0,Calm,Calm,-,N/A,,Overcast,0,2013-01-24 22:15:00
3:35 PM,48.2,35.6,62,30.29,10.0,West,4.6,-,N/A,,Overcast,260,2013-01-24 22:35:00
3:55 PM,48.2,35.6,62,30.29,10.0,Calm,Calm,-,N/A,,Overcast,0,2013-01-24 22:55:00
4:15 PM,48.2,35.6,62,30.29,10.0,Calm,Calm,-,N/A,,Overcast,0,2013-01-24 23:15:00
4:35 PM,48.2,35.6,62,30.29,10.0,Calm,Calm,-,N/A,,Overcast,0,2013-01-24 23:35:00
4:55 PM,48.2,37.4,66,30.29,7.0,Calm,Calm,-,0.01,,Overcast,0,2013-01-24 23:55:00
5:15 PM,48.2,35.6,62,30.29,10.0,Calm,Calm,-,N/A,,Overcast,0,2013-01-25 00:15:00
5:35 PM,46.4,37.4,71,30.29,10.0,SSE,4.6,-,N/A,,Mostly Cloudy,160,2013-01-25 00:35:00
5:55 PM,46.4,39.2,76,30.29,10.0,SSE,4.6,-,N/A,,Mostly Cloudy,160,2013-01-25 00:55:00
6:35 PM,46.4,37.4,71,30.29,10.0,SE,4.6,-,N/A,,Overcast,130,2013-01-25 01:35:00
6:55 PM,46.4,35.6,66,30.29,10.0,SE,3.5,-,N/A,,Overcast,130,2013-01-25 01:55:00
7:15 PM,46.4,35.6,66,30.29,10.0,Calm,Calm,-,N/A,,Overcast,0,2013-01-25 02:15:00
7:35 PM,46.4,35.6,66,30.31,10.0,Calm,Calm,-,N/A,,Overcast,0,2013-01-25 02:35:00
7:55 PM,46.4,37.4,71,30.32,10.0,Calm,Calm,-,N/A,,Overcast,0,2013-01-25 02:55:00
8:15 PM,46.4,37.4,71,30.31,10.0,Calm,Calm,-,N/A,,Overcast,0,2013-01-25 03:15:00
8:35 PM,46.4,37.4,71,30.32,10.0,Calm,Calm,-,N/A,,Overcast,0,2013-01-25 03:35:00
8:55 PM,44.6,37.4,76,30.32,10.0,Calm,Calm,-,N/A,,Overcast,0,2013-01-25 03:55:00
9:15 PM,44.6,37.4,76,30.31,10.0,ESE,3.5,-,N/A,,Overcast,120,2013-01-25 04:15:00
9:35 PM,44.6,37.4,76,30.31,10.0,ESE,3.5,-,N/A,,Overcast,110,2013-01-25 04:35:00
9:55 PM,46.4,37.4,71,30.30,10.0,North,4.6,-,N/A,,Overcast,10,2013-01-25 04:55:00
10:15 PM,44.6,37.4,76,30.31,10.0,North,3.5,-,N/A,,Overcast,360,2013-01-25 05:15:00
10:35 PM,44.6,37.4,76,30.31,10.0,NNW,3.5,-,N/A,,Overcast,340,2013-01-25 05:35:00
10:55 PM,44.6,37.4,76,30.32,10.0,NW,3.5,-,N/A,,Overcast,310,2013-01-25 05:55:00
11:15 PM,44.6,37.4,76,30.33,10.0,Calm,Calm,-,N/A,,Overcast,0,2013-01-25 06:15:00
11:35 PM,44.6,37.4,76,30.33,10.0,Calm,Calm,-,N/A,,Overcast,0,2013-01-25 06:35:00
11:55 PM,44.6,39.2,81,30.33,10.0,Calm,Calm,-,N/A,,Overcast,0,2013-01-25 06:55:00